International Skating Union - Official Site

ISU World Allround Championships 2016
March 5-6, 2016

Draw | Lap Times | Index | Classification

Referee: Knut Arthur  OLSEN  (NOR)
Starter: Bruce  LANSER  (USA)
StartTime: EndTime: Air Temp: Ice Temp: Humidity:
16:46 17:19 15.4℃ -6.9℃ 28.5%
Result 5000m Ladies
Rankings as of Mar 6 2016 5:20PM
Rank: No.: Name: Nation: Time: Behind: Points:
1 106 Martina  Sábliková CZE CZE 6:52.57200m - 20.56 - (20.5)
600m - 53.09 - (32.5)
1000m - 1:25.85 - (32.7)
1400m - 1:58.46 - (32.6)
1800m - 2:31.00 - (32.5)
2200m - 3:03.34 - (32.3)
2600m - 3:35.43 - (32.0)
3000m - 4:07.87 - (32.4)
3400m - 4:40.80 - (32.9)
3800m - 5:13.74 - (32.9)
4200m - 5:46.81 - (33.0)
4600m - 6:19.72 - (32.9)
5000m - 6:52.57 - (32.8)
41.257
2 118 Ireen  Wüst NED NED 7:01.41200m - 20.83 - (20.8)
600m - 52.83 - (32.0)
1000m - 1:25.78 - (32.9)
1400m - 1:58.44 - (32.6)
1800m - 2:31.29 - (32.8)
2200m - 3:03.92 - (32.6)
2600m - 3:36.74 - (32.8)
3000m - 4:10.13 - (33.3)
3400m - 4:43.75 - (33.6)
3800m - 5:17.91 - (34.1)
4200m - 5:52.47 - (34.5)
4600m - 6:26.91 - (34.4)
5000m - 7:01.41 - (34.5)
8.84 42.141
3 115 Antoinette  de Jong NED NED 7:04.04200m - 20.80 - (20.8)
600m - 53.41 - (32.6)
1000m - 1:25.79 - (32.3)
1400m - 1:57.99 - (32.2)
1800m - 2:30.60 - (32.6)
2200m - 3:03.77 - (33.1)
2600m - 3:37.53 - (33.7)
3000m - 4:11.56 - (34.0)
3400m - 4:45.68 - (34.1)
3800m - 5:20.04 - (34.3)
4200m - 5:54.54 - (34.5)
4600m - 6:29.39 - (34.8)
5000m - 7:04.04 - (34.6)
11.47 42.404
4 116 Linda  de Vries NED NED 7:06.79200m - 20.68 - (20.6)
600m - 53.71 - (33.0)
1000m - 1:27.48 - (33.7)
1400m - 2:00.29 - (32.8)
1800m - 2:33.57 - (33.2)
2200m - 3:06.90 - (33.3)
2600m - 3:40.60 - (33.7)
3000m - 4:14.49 - (33.8)
3400m - 4:48.54 - (34.0)
3800m - 5:22.68 - (34.1)
4200m - 5:57.16 - (34.4)
4600m - 6:31.83 - (34.6)
5000m - 7:06.79 - (34.9)
14.22 42.679
5 127 Natalya  Voronina RUS RUS 7:08.54200m - 20.75 - (20.7)
600m - 54.10 - (33.3)
1000m - 1:27.42 - (33.3)
1400m - 2:01.15 - (33.7)
1800m - 2:34.36 - (33.2)
2200m - 3:07.95 - (33.5)
2600m - 3:41.96 - (34.0)
3000m - 4:16.05 - (34.0)
3400m - 4:50.61 - (34.5)
3800m - 5:25.53 - (34.9)
4200m - 6:00.08 - (34.5)
4600m - 6:34.83 - (34.7)
5000m - 7:08.54 - (33.7)
15.97 42.854
6 113 Misaki  Oshigiri JPN JPN 7:13.01200m - 20.69 - (20.6)
600m - 54.48 - (33.7)
1000m - 1:27.84 - (33.3)
1400m - 2:01.51 - (33.6)
1800m - 2:35.38 - (33.8)
2200m - 3:09.24 - (33.8)
2600m - 3:43.30 - (34.0)
3000m - 4:17.63 - (34.3)
3400m - 4:52.02 - (34.3)
3800m - 5:26.88 - (34.8)
4200m - 6:02.13 - (35.2)
4600m - 6:37.66 - (35.5)
5000m - 7:13.01 - (35.3)
20.44 43.301
7 112 Ayaka  Kikuchi JPN JPN 7:18.12200m - 21.13 - (21.1)
600m - 54.54 - (33.4)
1000m - 1:28.64 - (34.1)
1400m - 2:02.60 - (33.9)
1800m - 2:36.73 - (34.1)
2200m - 3:11.02 - (34.2)
2600m - 3:45.70 - (34.6)
3000m - 4:20.51 - (34.8)
3400m - 4:56.05 - (35.5)
3800m - 5:32.07 - (36.0)
4200m - 6:07.83 - (35.7)
4600m - 6:43.94 - (36.1)
5000m - 7:18.12 - (34.1)
25.55 43.812
8 114 Miho  Takagi JPN JPN 7:18.61200m - 21.04 - (21.0)
600m - 55.25 - (34.2)
1000m - 1:29.25 - (34.0)
1400m - 2:03.45 - (34.2)
1800m - 2:37.43 - (33.9)
2200m - 3:11.61 - (34.1)
2600m - 3:46.04 - (34.4)
3000m - 4:20.43 - (34.3)
3400m - 4:55.12 - (34.6)
3800m - 5:30.54 - (35.4)
4200m - 6:07.03 - (36.4)
4600m - 6:43.33 - (36.3)
5000m - 7:18.61 - (35.2)
26.04 43.861